STARLINK-31062, 58590

Orbit data source: Space-Track

STARLINK-31062, 58590 is a payload satellite owned by SpaceX/Seattle (US) in LEO that was launched on Tue, 19 Dec 2023 UTC via an FALCON 9 launch vehicle from the Air Force Eastern Test Range (AFETR). Payload-class satellites include a variety of spacecraft equipped with specific instruments for various scientific and technological missions. These include communications satellites like Starlink; space stations such as the ISS; scientific satellites like the Hubble; Earth observation satellites from companies like Planet Labs, Umbra, and HawkEye 360; GPS; miniature CubeSats for education and research; and military/defense satellites.

Loading next visibility...
Identifier
58590, 2023-200B
Orbit
LEO
Country
Flag of USUS
Related business
Manufacturer
SpaceX/Seattle
Mission
Operational Commercial Communications
Bus & Motor
STARLINK V2M, Unknown motor
Mass
730 kg wet, ~700 kg dry
Launch date (UTC)
2023-12-19 (3 years ago)
Launch vehicle
FALCON 9
Launch site
Air Force Eastern Test Range (AFETR)
Object type
Payload
Rocket body
Debris
Shape & HBR
Box + 2 Pan, 17.7 m
Radar Cross Section
33.884 m², Large (>1 m²)

Expand to show TLE details & history
Last TLE update: 2 days ago

TLE from 2 days ago
0 STARLINK-31062
1 58590U 23200B   26171.42165965  .00004103  00000-0  15866-3 0  9996
2 58590  43.0032 311.9789 0001618 267.5988  92.4679 15.27559527139288
Epoch: 2026-06-20T10:07Z
TLE epoch observation values (Epoch: 2026-06-20T10:07:11.393Z)
Latitude
0.00001°
Longitude
-108.45508°
Altitude
482.934 km
Speed
7.626 km/s
True Right ascension
20h 47m 54s
True Declination
0° 00' 00"
Sunlit
Object was in full shadow at epoch
Visualization orbit readout
Latitude
Unknown
Longitude
Unknown
Altitude
Unknown
Speed
Unknown
Apparent Right ascension
Unknown
Apparent Declination
Unknown
Sunlit
N/A
Visualization observer readout
Local Sidereal Time
21:32:48
Azimuth
Unknown
Elevation
Unknown
Doppler factor
Unknown
Orbital elements
Apogee altitude
486.165 km
Perigee altitude
483.945 km
Semi-major axis
6,863.192 km
Eccentricity
0.00016
Inclination
43.0032°
RAAN
311.9789°
Arg. of periapsis
267.5988°
True anomaly
92.48642°
Mean anomaly
92.4679°
Eccentric anomaly
92.47716°
Mean motion
3.81728 °/min
Orbital period
94.31 mins
BSTAR
0.00015866
Loading maneuver chart data...
Computing Atmospheric mass density...
Loading historical data...
Loading historical data...
Loading historical data...
Loading historical data...
Loading historical data...
Loading historical data...
Loading historical data...

Documentation

Showing up to 5 results
|